Tracking 17844 objects as of 25-August-2016
HD Live streaming from Space Station
objects crossing your sky now

SL-14 R/B

Track SL-14 R/B now!
10-day predictions


NORAD ID: 16720
Int'l Code: 1986-034B
Perigee: 612.0 km
Apogee: 640.5 km
Inclination: 82.6 °
Period: 97.1 minutes
Semi major axis: 6997 km
RCS: 3.5564 m2 (large)
Launch date: May 15, 1986
Source: Commonwealth of Independent States (former USSR) (CIS)
Launch site: PLESETSK MISSILE AND SPACE COMPLEX (PKMTR)

Note: This is a ROCKET BODY
Your satellite tracking list
Your tracking list is empty





NASA's NSSDC Master Catalog

Two Line Element Set (TLE):
1 16720U 86034B   16238.24277622  .00000089  00000-0  79774-5 0  9995
2 16720  82.5566 157.4074 0020335   2.4507 108.7173 14.83243128635398
Source of the keplerian elements: AFSPC

N2YO: 771